TimePDT,TemperatureF,Dew PointF,Humidity,Sea Level PressureIn,VisibilityMPH,Wind Direction,Wind SpeedMPH,Gust SpeedMPH,PrecipitationIn,Events,Conditions,WindDirDegrees,DateUTC
12:56 AM,72.0,55.9,57,29.91,10.0,North,4.6,-,N/A,,Clear,360,2013-08-27 07:56:00
1:56 AM,70.0,59.0,68,29.89,10.0,Calm,Calm,-,N/A,,Clear,0,2013-08-27 08:56:00
2:56 AM,70.0,57.0,63,29.89,10.0,West,4.6,-,N/A,,Clear,270,2013-08-27 09:56:00
3:56 AM,66.9,55.0,66,29.88,10.0,WNW,8.1,-,N/A,,Clear,290,2013-08-27 10:56:00
4:56 AM,66.9,55.0,66,29.87,10.0,WNW,5.8,-,N/A,,Clear,290,2013-08-27 11:56:00
5:56 AM,66.0,55.0,68,29.89,10.0,West,4.6,-,N/A,,Clear,270,2013-08-27 12:56:00
6:56 AM,66.9,55.9,68,29.90,10.0,West,3.5,-,N/A,,Clear,270,2013-08-27 13:56:00
7:56 AM,73.9,55.9,53,-9999,10.0,Calm,Calm,-,N/A,,Clear,0,2013-08-27 14:56:00
8:56 AM,77.0,62.1,60,29.91,10.0,Variable,3.5,-,N/A,,Overcast,0,2013-08-27 15:56:00
9:56 AM,81.0,61.0,50,29.91,10.0,ENE,4.6,-,N/A,,Mostly Cloudy,60,2013-08-27 16:56:00
10:56 AM,84.0,61.0,46,29.90,10.0,Variable,5.8,-,N/A,,Partly Cloudy,0,2013-08-27 17:56:00
11:56 AM,86.0,60.1,41,29.88,10.0,East,9.2,-,N/A,,Overcast,80,2013-08-27 18:56:00
12:56 PM,88.0,59.0,37,29.86,10.0,ESE,5.8,-,N/A,,Partly Cloudy,110,2013-08-27 19:56:00
1:56 PM,89.1,59.0,36,29.84,10.0,Calm,Calm,-,N/A,,Scattered Clouds,0,2013-08-27 20:56:00
2:56 PM,91.0,57.9,33,29.81,10.0,Variable,4.6,-,N/A,,Scattered Clouds,0,2013-08-27 21:56:00
3:56 PM,90.0,57.9,34,29.80,10.0,West,5.8,-,N/A,,Clear,270,2013-08-27 22:56:00
4:56 PM,93.0,57.9,31,29.78,10.0,SW,11.5,19.6,N/A,,Mostly Cloudy,220,2013-08-27 23:56:00
5:56 PM,90.0,57.9,34,29.79,10.0,SW,15.0,23.0,N/A,,Partly Cloudy,230,2013-08-28 00:56:00
6:56 PM,86.0,57.0,37,29.79,10.0,WSW,17.3,-,N/A,,Partly Cloudy,250,2013-08-28 01:56:00
7:56 PM,84.9,55.9,37,29.79,10.0,WSW,12.7,-,N/A,,Overcast,250,2013-08-28 02:56:00
8:56 PM,82.0,55.9,41,29.82,10.0,West,10.4,-,N/A,,Mostly Cloudy,260,2013-08-28 03:56:00
9:56 PM,81.0,55.9,42,29.83,10.0,SW,8.1,-,N/A,,Clear,230,2013-08-28 04:56:00
10:56 PM,78.1,55.9,46,29.84,10.0,SW,10.4,-,N/A,,Clear,220,2013-08-28 05:56:00
11:56 PM,77.0,55.9,48,29.84,10.0,WSW,6.9,-,N/A,,Clear,250,2013-08-28 06:56:00